Starlink 30978

operational
NORAD ID: 58490 Int'l Des: 2023-186 Owner: SPXS Country: US Constellation: starlink
LEOCIRCULAR

Über Starlink 30978

Beschreibung wird geladen...

Live-Position

3D-Globus wird geladen...

Nächste Überflüge

Höhenverlauf

Altitude vs Time

uPlot chart will show altitude changes over time

Zweizeiliger Elementsatz

1 58490U 23186T 25259.12089503 .00000788 00000-0 73408-4 0 9996
2 58490 43.0037 295.8519 0001586 271.3703 88.6958 15.02538124 99583
Epoch: 16. Sept. 2025 • Age: 15 hours

Aktueller Status

Höhe 561.6 km
Geschwindigkeit 7.59 km/s
Subsatellitenpunkt 35.28°N, 160.53°E
Startdatum 3. Dez. 2023
Alter 1.7 years
Typ internet

Technische Details

Klassifizierung Payload
Masse 730.00 kg
Trockenmasse 700.00 kg
Gesamtmasse 730.00 kg
Länge 0.30 m
Durchmesser 4.10 m
Spannweite 29.00 m
Form Box + pan
Hersteller SPXS
Bus-Typ Starlink V2M
Phasenstatus In Orbit
Besitzer/Staat SPXS/US

Große Konstellationen

Loading constellations...